Simultaneous Nadir Overpasses (SNOs) Predictions

Prediction of SNOs between GOES-17 and AQUA Satellite Orbit:

Table of predicted SNOs for the next 14.0 days since TLE Epoch: 9/26/2025
Index Date Time (GOES-17) GOES-17 Lat,Lon AQUA Lat,Lon Distance(km) Time Diff (sec)
1 09/29/2025 08:51:08 -0.18, -89.49 -0.17, -89.42 8.37 80
2 10/01/2025 20:49:36 0.18, -89.50 0.30, -88.98 59.22 80
3 10/02/2025 09:11:18 -0.16, -89.49 0.70, -93.58 464.05 80
4 10/04/2025 08:47:52 -0.18, -89.50 -0.37, -88.49 114.45 80
5 10/04/2025 21:09:43 0.16, -89.50 -0.63, -93.12 411.75 80
6 10/06/2025 20:46:16 0.17, -89.51 0.47, -88.03 168.27 80
7 10/07/2025 09:07:58 -0.15, -89.51 0.51, -92.63 354.07 80
8 10/09/2025 08:44:30 -0.16, -89.52 -0.60, -87.53 226.08 80
9 10/09/2025 21:06:19 0.14, -89.52 -0.41, -92.16 300.08 80
